Location: Hamayl? Da??
(36.7028°N, 30.1716°E)
Time: 12:48:28
(UTC+00:00)

Vanguard 2 Rocket - Visible Passes

Search period start: 07 November 2024 00:00
Search period end: 17 November 2024 00:00
Orbit: 553 x 3297 km, 32.9° (Epoch: 06 November)

Date Brightness Start Highest point End Pass type
(mag) Time Alt. Az. Time Alt. Az. Time Alt. Az.
07 Nov 11.2 02:51:05 10° SE 02:54:26 11° SE 02:57:58 10° ESE visible
08 Nov 10.8 03:51:07 10° S 04:03:25 28° SE 04:18:23 10° E visible
09 Nov 10.9 02:50:39 10° SSE 02:59:05 17° SE 03:09:04 10° E visible
10 Nov 10.6 03:55:11 10° SSW 04:08:05 36° SE 04:24:48 10° E visible
11 Nov 10.6 02:53:35 10° S 03:03:40 24° SE 03:16:42 10° E visible
12 Nov 10.7 01:54:31 10° SSE 01:59:48 13° SE 02:05:56 10° ESE visible
12 Nov 10.4 03:59:46 10° SSW 04:12:51 44° SE 04:30:44 10° E visible
13 Nov 10.3 02:57:33 10° SSW 03:08:17 31° SE 03:23:14 10° E visible
14 Nov 10.4 01:56:40 10° S 02:04:23 19° SE 02:14:27 10° E visible
14 Nov 10.1 04:04:46 10° SW 04:17:46 53° SSE 04:36:24 10° E visible
15 Nov 10.1 03:02:08 10° SSW 03:13:02 39° SE 03:29:11 10° E visible
16 Nov 10.1 02:00:25 10° S 02:09:00 26° SE 02:21:16 10° E visible
16 Nov 9.8 04:10:03 10° SW 04:22:49 61° SSE 04:41:54 10° E visible
